datetime,gage height
1998-12-03,4099.76
1998-12-04,4099.69
1998-12-05,4099.51
1998-12-06,4099.48
1998-12-07,4099.42
1998-12-08,4099.36
1998-12-09,4099.29
1998-12-10,4099.28
1998-12-11,4099.25
1998-12-12,4099.25
1998-12-13,4099.6
1998-12-14,4100.32
1998-12-15,4099.67
1998-12-16,4099.39
1998-12-17,4099.31
1998-12-18,4099.24
1998-12-19,4099.14
1998-12-20,4099.08
1998-12-21,4099.09
1998-12-22,4099.05
1998-12-23,4099.03
1998-12-24,4099.02
1998-12-25,4099.03
1998-12-26,4099.05
1998-12-27,4099.05
1998-12-28,4099.08
1998-12-29,4099.11
1998-12-30,4099.1
1998-12-31,4099.13
1999-01-01,4099.16
1999-01-02,4099.12
1999-01-03,4099.1
1999-01-04,4099.08
1999-01-05,4099.08
1999-01-06,4099.07
1999-01-07,4099.04
1999-01-08,4099.04
1999-01-09,4099.04
1999-01-10,4099.04
1999-01-11,4099.04
1999-01-12,4099.06
1999-01-13,4099.06
1999-01-14,4099.08
1999-01-15,4099.13
1999-01-16,4099.25
1999-01-17,4099.3
1999-01-18,4100.41
1999-01-19,4100.07
1999-01-20,4099.75
1999-01-21,4099.95
1999-01-22,4099.74
1999-01-23,4099.98
1999-01-24,4100.09
1999-01-25,4099.57
1999-01-26,4099.45
1999-01-27,4099.3
1999-01-28,4099.25
1999-01-29,4099.24
1999-01-30,4099.21
1999-01-31,4099.21
1999-02-01,4099.15
1999-02-02,4099.17
1999-02-03,4099.15
1999-02-04,4099.16
1999-02-05,4099.16
1999-02-06,4099.16
1999-02-07,4099.61
1999-02-08,4099.83
1999-02-09,4099.43
1999-02-10,4099.33
1999-02-11,4099.34
1999-02-12,4099.3
1999-02-13,4099.27
1999-02-14,4099.27
1999-02-15,4099.25
1999-02-16,4099.3
1999-02-17,4099.36
1999-02-18,4099.97
1999-02-19,4100.64
1999-02-20,4101.08
1999-02-21,4101.56
1999-02-22,4101.54
1999-02-23,4101.54
1999-02-24,4102.07
1999-02-25,4102.73
1999-02-26,4102.38
1999-02-27,4102.03
1999-02-28,4102.69
1999-03-01,4103.29
1999-03-02,4102.79
1999-03-03,4102.91
1999-03-04,4102.67
1999-03-05,4102.2
1999-03-06,4102.0
1999-03-07,4102.24
1999-03-08,4102.32
1999-03-09,4102.25
1999-03-10,4102.22
1999-03-11,4102.18
1999-03-12,4102.17
1999-03-13,4102.17
1999-03-14,4102.16
1999-03-15,4102.24
1999-03-16,4102.44
1999-03-17,4102.59
1999-03-18,4102.91
1999-03-19,4102.84
1999-03-20,4102.98
1999-03-21,4103.01
1999-03-22,4102.77
1999-03-23,4102.54
1999-03-24,4102.6
1999-03-25,4102.83
1999-03-26,4102.83
1999-03-27,4102.8
1999-03-28,4102.63
1999-03-29,4102.49
1999-03-30,4101.41
1999-03-31,4100.9
1999-04-01,4100.86
1999-04-02,4101.89
1999-04-03,4102.26
1999-04-04,4102.23
1999-04-05,4102.23
1999-04-06,4102.23
1999-04-07,4102.22
1999-04-08,4102.27
1999-04-09,4102.3
1999-04-10,4102.34
1999-04-11,4102.38
1999-04-12,4102.46
1999-04-13,4102.4
1999-04-14,4102.34
1999-04-15,4101.86
1999-04-16,4101.89
1999-04-17,4101.32
1999-04-18,4100.76
1999-04-19,4100.77
1999-04-20,4100.73
1999-04-21,4100.4
1999-04-22,4100.27
1999-04-23,4100.21
1999-04-24,4099.66
1999-04-25,4099.38
1999-04-26,4099.28
1999-04-27,4099.02
1999-04-28,4099.46
1999-04-29,4099.85
1999-04-30,4099.79
1999-05-01,4099.75
1999-05-02,4099.7
1999-05-03,4099.7
1999-05-04,4099.76
1999-05-05,4099.71
1999-05-06,4099.72
1999-05-07,4099.7
1999-05-08,4099.63
1999-05-09,4099.6
1999-05-10,4099.59
1999-05-11,4099.43
1999-05-12,4099.27
1999-05-13,4099.38
1999-05-14,4099.49
1999-05-15,4099.67
1999-05-16,4099.65
1999-05-17,4099.57
1999-05-18,4099.54
1999-05-19,4099.56
1999-05-20,4099.55
1999-05-21,4099.62
1999-05-22,4099.64
1999-05-23,4099.59
1999-05-24,4099.59
1999-05-25,4099.52
1999-05-26,4099.51
1999-05-27,4099.52
1999-05-28,4099.52
1999-05-29,4099.5
1999-05-30,4099.55
1999-05-31,4099.56
1999-06-01,4099.52
1999-06-02,4099.61
1999-06-03,4099.75
1999-06-04,4099.75
1999-06-05,4099.72
1999-06-06,4099.69
1999-06-07,4099.7
1999-06-08,4099.64
1999-06-09,4099.54
1999-06-10,4099.24
1999-06-11,4099.33
1999-06-12,4099.43
1999-06-13,4099.5
1999-06-14,4099.55
1999-06-15,4099.49
1999-06-16,4099.37
1999-06-17,4099.39
1999-06-18,4099.43
1999-06-19,4099.5
1999-06-20,4099.54
1999-06-21,4099.63
1999-06-22,4099.6
1999-06-23,4099.54
1999-06-24,4099.41
1999-06-25,4099.44
1999-06-26,4099.53
1999-06-27,4099.51
1999-06-28,4099.52
1999-06-29,4099.44
1999-06-30,4099.25
1999-07-01,4099.19
1999-07-02,4099.27
1999-07-03,4099.28
1999-07-04,4099.44
1999-07-05,4099.47
1999-07-06,4099.42
1999-07-07,4099.26
1999-07-08,4099.0
1999-07-09,4098.91
1999-07-10,4098.95
1999-07-11,4099.0
1999-07-12,4099.1
1999-07-13,4099.11
1999-07-14,4099.15
1999-07-15,4099.3
1999-07-16,4099.31
1999-07-17,4099.25
1999-07-18,4099.24
1999-07-19,4099.25
1999-07-20,4099.29
1999-07-21,4099.29
1999-07-22,4099.29
1999-07-23,4099.48
1999-07-24,4099.5
1999-07-25,4099.54
1999-07-26,4099.5
1999-07-27,4099.32
1999-07-28,4099.04
1999-07-29,4099.05
1999-07-30,4099.35
1999-07-31,4099.54
1999-08-01,4099.58
1999-08-02,4099.67
1999-08-03,4099.57
1999-08-04,4099.43
1999-08-05,4099.46
1999-08-06,4099.64
1999-08-07,4099.98
1999-08-08,4099.98
1999-08-09,4099.96
1999-08-10,4099.87
1999-08-11,4099.84
1999-08-12,4099.97
1999-08-13,4100.02
1999-08-14,4099.93
1999-08-15,4099.92
1999-08-16,4099.89
1999-08-17,4099.47
1999-08-18,4099.47
1999-08-19,4099.47
1999-08-20,4099.41
1999-08-21,4099.25
1999-08-22,4099.3
1999-08-23,4099.6
1999-08-24,4099.55
1999-08-25,4099.35
1999-08-26,4099.23
1999-08-27,4099.31
1999-08-28,4099.49
1999-08-29,4099.73
1999-08-30,4099.88
1999-08-31,4100.0
1999-09-01,4100.02
1999-09-02,4099.96
1999-09-03,4099.83
1999-09-04,4099.84
1999-09-05,4099.98
1999-09-06,4100.06
1999-09-07,4099.97
1999-09-08,4099.86
1999-09-09,4099.87
1999-09-10,4099.91
1999-09-11,4099.88
1999-09-12,4099.96
1999-09-13,4099.95
1999-09-14,4099.87
1999-09-15,4099.86
1999-09-16,4099.83
1999-09-17,4099.87
1999-09-18,4099.88
1999-09-19,4099.88
1999-09-20,4099.89
1999-09-21,4099.86
1999-09-22,4099.85
1999-09-23,4099.85
1999-09-24,4099.85
1999-09-25,4099.89
1999-09-26,4099.9
1999-09-27,4099.92
1999-09-28,4099.97
1999-09-29,4100.25
1999-09-30,4100.48
1999-10-01,4100.46
1999-10-02,4100.49
1999-10-03,4100.21
1999-10-04,4100.09
1999-10-05,4099.99
1999-10-06,4099.88
1999-10-07,4099.97
1999-10-08,4099.88
1999-10-09,4099.81
1999-10-10,4099.79
1999-10-11,4099.77
1999-10-12,4099.8
1999-10-13,4099.72
1999-10-14,4099.7
1999-10-15,4099.68
1999-10-16,4099.66
1999-10-17,4099.65
1999-10-18,4099.5
1999-10-19,4099.13
1999-10-20,4099.07
1999-10-21,4099.06
1999-10-22,4099.06
1999-10-23,4099.06
1999-10-24,4099.04
1999-10-25,4099.02
1999-10-26,4099.01
1999-10-27,4099.04
1999-10-28,4099.07
1999-10-29,4099.06
1999-10-30,4099.04
1999-10-31,4099.03
1999-11-01,4099.02
1999-11-02,4099.02
1999-11-03,4099.02
1999-11-04,4099.01
1999-11-05,4099.01
1999-11-06,4099.01
1999-11-07,4098.99
1999-11-08,4099.0
1999-11-09,4099.0
1999-11-10,4099.0
1999-11-11,4099.0
1999-11-12,4099.0
1999-11-13,4098.99
1999-11-14,4098.99
1999-11-15,4099.0
1999-11-16,4099.02
1999-11-17,4099.02
1999-11-18,4099.02
1999-11-19,4099.0
1999-11-20,4099.0
1999-11-21,4098.99
1999-11-22,4098.99
1999-11-23,4098.98
1999-11-24,4098.98
1999-11-25,4098.99
1999-11-26,4098.99
1999-11-27,4099.0
1999-11-28,4098.99
1999-11-29,4098.99
1999-11-30,4099.02
1999-12-01,4099.01
1999-12-02,4099.02
1999-12-03,4099.01
1999-12-04,4099.01
1999-12-05,4099.03
1999-12-06,4099.03
1999-12-07,4099.03
1999-12-08,4099.03
1999-12-09,4099.04
1999-12-10,4099.01
1999-12-11,4099.02
1999-12-12,4099.02
1999-12-13,4099.03
1999-12-14,4099.02
1999-12-15,4099.03
1999-12-16,4099.03
1999-12-17,4099.03
1999-12-18,4099.04
1999-12-19,4099.05
1999-12-20,4099.05
1999-12-21,4099.04
1999-12-22,4099.04
1999-12-23,4099.03
1999-12-24,4099.03
1999-12-25,4099.03
1999-12-26,4099.03
1999-12-27,4099.03
1999-12-28,4099.03
1999-12-29,4099.03
1999-12-30,4099.03
1999-12-31,4099.03
2000-01-01,4099.04
2000-01-02,4099.05
2000-01-03,4099.07
2000-01-04,4099.06
2000-01-05,4099.05
2000-01-06,4099.04
2000-01-07,4099.06
2000-01-08,4099.06
2000-01-09,4099.07
2000-01-10,4099.11
2000-01-11,4100.3
2000-01-12,4099.76
2000-01-13,4099.43
2000-01-14,4099.4
2000-01-15,4099.48
2000-01-16,4099.61
2000-01-17,4099.67
2000-01-18,4099.5
2000-01-19,4099.57
2000-01-20,4099.69
2000-01-21,4099.54
2000-01-22,4099.39
2000-01-23,4099.33
2000-01-24,4099.44
2000-01-25,4100.03
2000-01-26,4100.11
2000-01-27,4099.68
2000-01-28,4099.41
2000-01-29,4099.29
2000-01-30,4099.25
2000-01-31,4099.24
2000-02-01,4099.24
2000-02-02,4099.25
2000-02-03,4099.25
2000-02-04,4099.24
2000-02-05,4099.26
2000-02-06,4099.26
2000-02-07,4099.25
2000-02-08,4099.24
2000-02-09,4099.21
2000-02-10,4099.21
2000-02-11,4099.22
2000-02-12,4099.26
2000-02-13,4099.34
2000-02-14,4099.76
2000-02-15,4100.18
2000-02-16,4099.69
2000-02-17,4099.53
2000-02-18,4099.45
2000-02-19,4099.33
2000-02-20,4099.28
2000-02-21,4099.26
2000-02-22,4099.27
2000-02-23,4099.25
2000-02-24,4099.26
2000-02-25,4099.3
2000-02-26,4099.38
2000-02-27,4100.07
2000-02-28,4100.18
2000-02-29,4099.67
2000-03-01,4099.51
2000-03-02,4099.4
2000-03-03,4099.38
2000-03-04,4099.38
2000-03-05,4099.67
2000-03-06,4100.38
2000-03-07,4100.1
2000-03-08,4100.05
2000-03-09,4099.93
2000-03-10,4099.77
2000-03-11,4099.66
2000-03-12,4099.55
2000-03-13,4099.47
2000-03-14,4099.43
2000-03-15,4099.44
2000-03-16,4099.42
2000-03-17,4099.43
2000-03-18,4099.4
2000-03-19,4099.4
2000-03-20,4099.38
2000-03-21,4099.38
2000-03-22,4099.38
2000-03-23,4099.39
2000-03-24,4099.39
2000-03-25,4099.41
2000-03-26,4099.4
2000-03-27,4099.4
2000-03-28,4099.41
2000-03-29,4099.41
2000-03-30,4099.4
2000-03-31,4099.37
2000-04-01,4099.34
2000-04-02,4099.33
2000-04-03,4099.33
2000-04-04,4099.36
2000-04-05,4099.39
2000-04-06,4099.41
2000-04-07,4099.39
2000-04-08,4099.27
2000-04-09,4099.21
2000-04-10,4099.18
2000-04-11,4099.14
2000-04-12,4099.18
2000-04-13,4099.15
2000-04-14,4099.14
2000-04-15,4099.11
2000-04-16,4099.13
2000-04-17,4099.14
2000-04-18,4099.31
2000-04-19,4099.68
2000-04-20,4099.42
2000-04-21,4099.2
2000-04-22,4099.19
2000-04-23,4099.27
2000-04-24,4099.05
2000-04-25,4098.86
2000-04-26,4098.9
2000-04-27,4099.32
2000-04-28,4099.67
2000-04-29,4099.62
2000-04-30,4099.63
2000-05-01,4099.67
2000-05-02,4099.68
2000-05-03,4099.72
2000-05-04,4099.75
2000-05-05,4099.84
2000-05-06,4099.85
2000-05-07,4099.84
2000-05-08,4099.87
2000-05-09,4099.83
2000-05-10,4099.77
2000-05-11,4099.74
2000-05-12,4099.57
2000-05-13,4099.13
2000-05-14,4099.59
2000-05-15,4099.78
2000-05-16,4099.92
2000-05-17,4099.87
2000-05-18,4099.57
2000-05-19,4099.7
2000-05-20,4099.47
2000-05-21,4099.32
2000-05-22,4099.3
2000-05-23,4099.2
2000-05-24,4099.23
2000-05-25,4099.32
2000-05-26,4099.36
2000-05-27,4099.43
2000-05-28,4099.46
2000-05-29,4099.46
2000-05-30,4099.57
2000-05-31,4099.64
2000-06-01,4099.68
2000-06-02,4099.53
2000-06-03,4099.5
2000-06-04,4099.51
2000-06-05,4099.51
2000-06-06,4099.37
2000-06-07,4099.3
2000-06-08,4099.46
2000-06-09,4099.6
2000-06-10,4099.71
2000-06-11,4099.57
2000-06-12,4099.73
2000-06-13,4099.82
2000-06-14,4099.75
2000-06-15,4099.57
2000-06-16,4099.47
2000-06-17,4099.61
2000-06-18,4099.75
2000-06-19,4099.75
2000-06-20,4099.63
2000-06-21,4099.5
2000-06-22,4099.43
2000-06-23,4099.41
2000-06-24,4099.35
2000-06-25,4099.52
2000-06-26,4099.65
2000-06-27,4099.67
2000-06-28,4099.57
2000-06-29,4099.42
2000-06-30,4099.36
2000-07-01,4099.48
2000-07-02,4099.54
2000-07-03,4099.64
2000-07-04,4099.57
2000-07-05,4099.66
2000-07-06,4100.11
2000-07-07,4099.83
2000-07-08,4099.65
2000-07-09,4099.69
2000-07-10,4099.74
2000-07-11,4099.54
2000-07-12,4099.46
2000-07-13,4099.24
2000-07-14,4099.21
2000-07-15,4099.23
2000-07-16,4099.44
2000-07-17,4099.6
2000-07-18,4099.62
2000-07-19,4099.43
2000-07-20,4099.37
2000-07-21,4099.35
2000-07-22,4099.24
2000-07-23,4099.15
2000-07-24,4099.28
2000-07-25,4099.41
2000-07-26,4099.48
2000-07-27,4099.42
2000-07-28,4099.44
2000-07-29,4099.25
2000-07-30,4099.19
2000-07-31,4099.2
2000-08-01,4099.18
2000-08-02,4099.1
2000-08-03,4099.23
2000-08-04,4099.28
2000-08-05,4099.24
2000-08-06,4099.23
2000-08-07,4099.21
2000-08-08,4098.96
2000-08-09,4098.71
2000-08-10,4098.64
2000-08-11,4098.77
2000-08-12,4099.0
2000-08-13,4099.46
2000-08-14,4099.57
2000-08-15,4099.25
2000-08-16,4099.31
2000-08-17,4099.31
2000-08-18,4099.31
2000-08-19,4099.34
2000-08-20,4099.3
2000-08-21,4099.69
2000-08-22,4099.74
2000-08-23,4099.77
2000-08-24,4099.75
2000-08-25,4099.69
2000-08-26,4099.76
2000-08-27,4100.07
2000-08-28,4100.36
2000-08-29,4100.07
2000-08-30,4100.31
2000-08-31,4100.79
2000-09-01,4100.93
2000-09-02,4101.32
2000-09-03,4101.53
2000-09-04,4101.16
2000-09-05,4101.14
2000-09-06,4101.08
2000-09-07,4100.94
2000-09-08,4100.92
2000-09-09,4100.89
2000-09-10,4100.68
2000-09-11,4100.7
2000-09-12,4100.72
2000-09-13,4100.6
2000-09-14,4100.53
2000-09-15,4100.53
2000-09-16,4100.59
2000-09-17,4100.76
2000-09-18,4100.88
2000-09-19,4100.82
2000-09-20,4100.71
2000-09-21,4100.72
2000-09-22,4100.77
2000-09-23,4100.78
2000-09-24,4100.82
2000-09-25,4100.8
2000-09-26,4100.8
2000-09-27,4100.82
2000-09-28,4100.8
2000-09-29,4100.87
2000-09-30,4100.48
2000-10-01,4099.89
2000-10-02,4099.54
2000-10-03,4099.44
2000-10-04,4099.45
2000-10-05,4099.45
2000-10-06,4099.49
2000-10-07,4099.08
2000-10-08,4098.96
2000-10-09,4098.95
2000-10-10,4098.96
2000-10-11,4098.99
2000-10-12,4098.99
2000-10-13,4098.98
2000-10-14,4098.96
2000-10-15,4098.95
2000-10-16,4098.96
2000-10-17,4098.93
2000-10-18,4098.91
2000-10-19,4098.91
2000-10-20,4098.92
2000-10-21,4098.94
2000-10-22,4098.93
2000-10-23,4098.96
2000-10-24,4098.91
2000-10-25,4098.91
2000-10-26,4098.91
2000-10-27,4098.91
2000-10-28,4098.93
2000-10-29,4098.95
2000-10-30,4098.94
2000-10-31,4098.92
2000-11-01,4098.92
2000-11-02,4098.92
2000-11-03,4098.93
2000-11-04,4098.92
2000-11-05,4098.92
2000-11-06,4098.91
2000-11-07,4098.9
2000-11-08,4098.9
2000-11-09,4098.91
2000-11-10,4098.91
2000-11-11,4098.9
2000-11-12,4098.9
2000-11-13,4098.9
2000-11-14,4098.92
2000-11-15,4098.91
2000-11-16,4098.9
2000-11-17,4098.9
2000-11-18,4098.89
2000-11-19,4098.9
2000-11-20,4098.91
2000-11-21,4098.91
2000-11-22,4098.91
2000-11-23,4098.91
2000-11-24,4098.92
2000-11-25,4098.92
2000-11-26,4098.94
2000-11-27,4098.94
2000-11-28,4098.96
2000-11-29,4098.98
2000-11-30,4098.99
2000-12-01,4098.98
2000-12-02,4098.97
2000-12-03,4098.96
2000-12-04,4098.96
2000-12-05,4098.95
2000-12-06,4098.95
2000-12-07,4098.95
2000-12-08,4098.97
2000-12-09,4098.98
2000-12-10,4098.98
2000-12-11,4098.99
2000-12-12,4098.98
2000-12-13,4098.99
2000-12-14,4098.99
2000-12-15,4099.0
2000-12-16,4099.0
2000-12-17,4099.0
2000-12-18,4098.97
2000-12-19,4098.97
2000-12-20,4098.97
2000-12-21,4098.98
2000-12-22,4098.98
2000-12-23,4098.98
2000-12-24,4098.97
2000-12-25,4098.96
2000-12-26,4098.95
2000-12-27,4098.96
2000-12-28,4098.95
2000-12-29,4098.95
2000-12-30,4098.94
2000-12-31,4098.94
2001-01-01,4098.94
2001-01-02,4098.95
2001-01-03,4098.95
2001-01-04,4098.96
2001-01-05,4098.96
2001-01-06,4098.98
2001-01-07,4098.98
2001-01-08,4098.98
2001-01-09,4098.99
2001-01-10,4099.0
2001-01-11,4098.99
2001-01-12,4099.0
2001-01-13,4099.0
2001-01-14,4098.99
2001-01-15,4098.99
2001-01-16,4098.98
2001-01-17,4098.97
2001-01-18,4098.98
2001-01-19,4099.0
2001-01-20,4099.0
2001-01-21,4099.01
2001-01-22,4099.02
2001-01-23,4099.03
2001-01-24,4099.05
2001-01-25,4099.05
2001-01-26,4099.04
2001-01-27,4099.04
2001-01-28,4099.04
2001-01-29,4099.04
2001-01-30,4099.04
2001-01-31,4099.03
2001-02-01,4099.05
2001-02-02,4099.06
2001-02-03,4099.07
2001-02-04,4099.09
2001-02-05,4099.11
2001-02-06,4099.1
2001-02-07,4099.08
2001-02-08,4099.07
2001-02-09,4099.1
2001-02-10,4099.09
2001-02-11,4099.08
2001-02-12,4099.07
2001-02-13,4099.07
2001-02-14,4099.07
2001-02-15,4099.08
2001-02-16,4099.09
2001-02-17,4099.08
2001-02-18,4099.1
2001-02-19,4099.09
2001-02-20,4099.11
2001-02-21,4099.12
2001-02-22,4099.12
2001-02-23,4099.13
2001-02-24,4099.13
2001-02-25,4099.13
2001-02-26,4099.12
2001-02-27,4099.12
2001-02-28,4099.12
2001-03-01,4099.1
2001-03-02,4099.09
2001-03-03,4099.09
2001-03-04,4099.09
2001-03-05,4099.09
2001-03-06,4099.12
2001-03-07,4099.12
2001-03-08,4099.11
2001-03-09,4099.08
2001-03-10,4099.05
2001-03-11,4099.05
2001-03-12,4099.06
2001-03-13,4099.05
2001-03-14,4099.05
2001-03-15,4099.03
2001-03-16,4099.04
2001-03-17,4099.04
2001-03-18,4099.04
2001-03-19,4099.04
2001-03-20,4099.04
2001-03-21,4099.02
2001-03-22,4099.02
2001-03-23,4099.02
2001-03-24,4099.02
2001-03-25,4099.03
2001-03-26,4099.0
2001-03-27,4099.0
2001-03-28,4099.01
2001-03-29,4099.0
2001-03-30,4099.0
2001-03-31,4099.0
2001-04-01,4098.99
2001-04-02,4098.98
2001-04-03,4099.05
2001-04-04,4099.52
2001-04-05,4099.41
2001-04-06,4099.41
2001-04-07,4099.19
2001-04-08,4099.24
2001-04-09,4099.52
2001-04-10,4099.57
2001-04-11,4099.57
2001-04-12,4099.57
2001-04-13,4099.53
2001-04-14,4099.46
2001-04-15,4099.53
2001-04-16,4099.58
2001-04-17,4099.59
2001-04-18,4099.57
2001-04-19,4099.59
2001-04-20,4099.64
2001-04-21,4099.63
2001-04-22,4099.64
2001-04-23,4099.7
2001-04-24,4099.65
2001-04-25,4099.65
2001-04-26,4099.62
2001-04-27,4099.7
2001-04-28,4099.58
2001-04-29,4099.31
2001-04-30,4099.27
2001-05-01,4099.26
2001-05-02,4099.29
2001-05-03,4099.18
2001-05-04,4099.11
2001-05-05,4098.77
2001-05-06,4098.5
2001-05-07,4098.59
2001-05-08,4098.64
2001-05-09,4098.6
2001-05-10,4098.65
2001-05-11,4098.68
2001-05-12,4098.74
2001-05-13,4099.26
2001-05-14,4099.84
2001-05-15,4100.47
2001-05-16,4100.58
2001-05-17,4100.4
2001-05-18,4100.31
2001-05-19,4100.3
2001-05-20,4100.37
2001-05-21,4100.43
2001-05-22,4100.38
2001-05-23,4100.36
2001-05-24,4100.33
2001-05-25,4100.34
2001-05-26,4100.31
2001-05-27,4100.25
2001-05-28,4100.33
2001-05-29,4100.38
2001-05-30,4100.25
2001-05-31,4100.24
2001-06-01,4100.24
2001-06-02,4100.37
2001-06-03,4100.54
2001-06-04,4100.66
2001-06-05,4100.66
2001-06-06,4100.75
2001-06-07,4100.78
2001-06-08,4100.71
2001-06-09,4100.58
2001-06-10,4100.59
2001-06-11,4100.74
2001-06-12,4100.74
2001-06-13,4100.72
2001-06-14,4100.62
2001-06-15,4100.54
2001-06-16,4100.37
2001-06-17,4100.52
2001-06-18,4100.55
2001-06-19,4100.52
2001-06-20,4100.29
2001-06-21,4100.5
2001-06-22,4100.41
2001-06-23,4100.45
2001-06-24,4100.33
2001-06-25,4100.34
2001-06-26,4100.4
2001-06-27,4100.85
2001-06-28,4100.77
2001-06-29,4100.44
2001-06-30,4100.3
2001-07-01,4100.33
2001-07-02,4100.38
2001-07-03,4100.32
2001-07-04,4100.27
2001-07-05,4100.24
2001-07-06,4100.12
2001-07-07,4100.11
2001-07-08,4100.07
2001-07-09,4100.14
2001-07-10,4100.03
2001-07-11,4100.18
2001-07-12,4100.19
2001-07-13,4100.12
2001-07-14,4100.26
2001-07-15,4100.33
2001-07-16,4100.39
2001-07-17,4100.28
2001-07-18,4100.29
2001-07-19,4100.32
2001-07-20,4100.24
2001-07-21,4100.24
2001-07-22,4100.29
2001-07-23,4100.34
2001-07-24,4100.24
2001-07-25,4100.13
2001-07-26,4099.95
2001-07-27,4099.96
2001-07-28,4099.88
2001-07-29,4099.65
2001-07-30,4099.54
2001-07-31,4099.47
2001-08-01,4099.49
2001-08-02,4099.49
2001-08-03,4099.65
2001-08-04,4099.73
2001-08-05,4099.59
2001-08-06,4099.42
2001-08-07,4099.16
2001-08-08,4099.02
2001-08-09,4099.03
2001-08-10,4099.5
2001-08-11,4100.4
2001-08-12,4100.3
2001-08-13,4100.31
2001-08-14,4100.27
2001-08-15,4100.23
2001-08-16,4100.25
2001-08-17,4100.88
2001-08-18,4101.25
2001-08-19,4101.25
2001-08-20,4101.25
2001-08-21,4101.25
2001-08-22,4101.25
2001-08-23,4101.25
2001-08-24,4101.25
2001-08-25,4101.25
2001-08-26,4101.25
2001-08-27,4101.25
2001-08-28,4101.25
2001-08-29,4101.25
2001-08-30,4101.25
2001-08-31,4101.25
2001-09-01,4101.25
2001-09-02,4101.25
2001-09-03,4101.25
2001-09-04,4101.25
2001-09-05,4101.25
2001-09-06,4101.25
2001-09-07,4101.25
2001-09-08,4101.25
2001-09-09,4101.25
2001-09-10,4101.25
2001-09-11,4101.25
2001-09-12,4101.25
2001-09-13,4101.25
2001-09-14,4101.25
2001-09-15,4101.25
2001-09-16,4101.25
2001-09-17,4101.25
2001-09-18,4101.25
2001-09-19,4101.25
2001-09-20,4101.25
2001-09-21,4101.25
2001-09-22,4101.25
2001-09-23,4101.25
2001-09-24,4101.25
2001-09-25,4101.25
2001-09-26,4101.25
2001-09-27,4101.25
2001-09-28,4101.25
2001-09-29,4101.25
2001-09-30,4101.25
2001-10-01,4101.25
2001-10-02,4101.25
2001-10-03,4101.25
2001-10-04,4101.25
2001-10-05,4101.25
2001-10-06,4101.25
2001-10-07,4101.25
2001-10-08,4101.25
2001-10-09,4101.25
2001-10-10,4101.25
2001-10-11,4101.25
2001-10-12,4101.25
2001-10-13,4101.25
2001-10-14,4101.25
2001-10-15,4101.25
2001-10-16,4101.25
2001-10-17,4101.25
2001-10-18,4101.25
2001-10-19,4101.25
2001-10-20,4101.25
2001-10-21,4101.25
2001-10-22,4101.25
2001-10-23,4101.25
2001-10-24,4101.25
2001-10-25,4101.25
2001-10-26,4101.25
2001-10-27,4101.25
2001-10-28,4101.25
2001-10-29,4101.25
2001-10-30,4101.25
2001-10-31,4101.25
2001-11-01,4101.25
2001-11-02,4101.25
2001-11-03,4101.25
2001-11-04,4101.25
2001-11-05,4101.25
2001-11-06,4101.25
2001-11-07,4101.25
2001-11-08,4101.25
2001-11-09,4101.25
2001-11-10,4101.25
2001-11-11,4101.25
2001-11-12,4101.25
2001-11-13,4101.25
2001-11-14,4101.25
2001-11-15,4101.25
2001-11-16,4101.25
2001-11-17,4101.25
2001-11-18,4101.25
2001-11-19,4101.25
2001-11-20,4101.25
2001-11-21,4101.25
2001-11-22,4101.25
2001-11-23,4101.25
2001-11-24,4101.25
2001-11-25,4101.25
2001-11-26,4101.25
2001-11-27,4101.25
2001-11-28,4101.25
2001-11-29,4101.25
2001-11-30,4101.25
2001-12-01,4101.25
2001-12-02,4101.25
2001-12-03,4101.25
2001-12-04,4101.25
2001-12-05,4101.25
2001-12-06,4100.13
2001-12-07,4099.4
2001-12-08,4099.37
2001-12-09,4099.21
2001-12-10,4099.06
2001-12-11,4099.07
2001-12-12,4099.01
2001-12-13,4098.98
2001-12-14,4098.97
2001-12-15,4099.0
2001-12-16,4099.0
2001-12-17,4098.99
2001-12-18,4099.01
2001-12-19,4099.04
2001-12-20,4099.13
2001-12-21,4099.17
2001-12-22,4099.09
2001-12-23,4099.05
2001-12-24,4099.0
2001-12-25,4098.97
2001-12-26,4098.98
2001-12-27,4098.97
2001-12-28,4099.04
2001-12-29,4099.25
2001-12-30,4099.86
2001-12-31,4100.94
2002-01-01,4100.9
2002-01-02,4101.4
2002-01-03,4101.35
2002-01-04,4100.23
2002-01-05,4099.66
2002-01-06,4099.47
2002-01-07,4099.69
2002-01-08,4099.64
2002-01-09,4099.57
2002-01-10,4099.35
2002-01-11,4099.26
2002-01-12,4099.21
2002-01-13,4099.16
2002-01-14,4099.12
2002-01-15,4099.06
2002-01-16,4099.04
2002-01-17,4099.03
2002-01-18,4099.0
2002-01-19,4098.99
2002-01-20,4099.0
2002-01-21,4099.0
2002-01-22,4098.96
2002-01-23,4099.0
2002-01-24,4098.98
2002-01-25,4098.99
2002-01-26,4098.99
2002-01-27,4098.94
2002-01-28,4098.93
2002-01-29,4098.93
2002-01-30,4098.92
2002-01-31,4098.9
2002-02-01,4098.93
2002-02-02,4098.91
2002-02-03,4098.92
2002-02-04,4098.92
2002-02-05,4098.91
2002-02-06,4098.92
2002-02-07,4098.95
2002-02-08,4098.98
2002-02-09,4098.98
2002-02-10,4098.97
2002-02-11,4098.97
2002-02-12,4098.97
2002-02-13,4098.98
2002-02-14,4098.99
2002-02-15,4099.0
2002-02-16,4099.01
2002-02-17,4099.04
2002-02-18,4099.06
2002-02-19,4099.1
2002-02-20,4099.66
2002-02-21,4100.33
2002-02-22,4099.77
2002-02-23,4099.68
2002-02-24,4099.61
2002-02-25,4099.43
2002-02-26,4099.3
2002-02-27,4099.24
2002-02-28,4099.19
2002-03-01,4099.14
2002-03-02,4099.1
2002-03-03,4099.08
2002-03-04,4099.07
2002-03-05,4099.07
2002-03-06,4099.08
2002-03-07,4099.1
2002-03-08,4099.12
2002-03-09,4099.1
2002-03-10,4099.09
2002-03-11,4099.11
2002-03-12,4099.24
2002-03-13,4099.23
2002-03-14,4099.17
2002-03-15,4099.12
2002-03-16,4099.07
2002-03-17,4099.06
2002-03-18,4099.06
2002-03-19,4099.05
2002-03-20,4099.05
2002-03-21,4099.03
2002-03-22,4099.04
2002-03-23,4099.04
2002-03-24,4099.03
2002-03-25,4099.02
2002-03-26,4099.06
2002-03-27,4099.07
2002-03-28,4099.04
2002-03-29,4099.09
2002-03-30,4099.15
2002-03-31,4099.19
2002-04-01,4099.2
2002-04-02,4099.17
2002-04-03,4099.35
2002-04-04,4099.58
2002-04-05,4099.63
2002-04-06,4099.62
2002-04-07,4099.6
2002-04-08,4099.61
2002-04-09,4099.64
2002-04-10,4099.61
2002-04-11,4099.6
2002-04-12,4099.51
2002-04-13,4099.4
2002-04-14,4099.4
2002-04-15,4099.39
2002-04-16,4099.45
2002-04-17,4099.46
2002-04-18,4099.15
2002-04-19,4098.67
2002-04-20,4098.41
2002-04-21,4098.63
2002-04-22,4099.1
2002-04-23,4099.25
2002-04-24,4099.1
2002-04-25,4099.2
2002-04-26,4099.1
2002-04-27,4099.17
2002-04-28,4099.27
2002-04-29,4099.23
2002-04-30,4099.71
2002-05-01,4099.93
2002-05-02,4099.65
2002-05-03,4099.52
2002-05-04,4099.41
2002-05-05,4099.24
2002-05-06,4099.1
2002-05-07,4099.19
2002-05-08,4099.13
2002-05-09,4099.23
2002-05-10,4099.23
2002-05-11,4099.28
2002-05-12,4099.41
2002-05-13,4099.28
2002-05-14,4099.03
2002-05-15,4098.78
2002-05-16,4098.55
2002-05-17,4098.52
2002-05-18,4098.63
2002-05-19,4098.77
2002-05-20,4099.31
2002-05-21,4099.55
2002-05-22,4099.67
2002-05-23,4099.64
2002-05-24,4099.47